This is the latest recevied weather packets stored in our database for station/object DJ5CM-10. If no packets are shown the sender has not sent any weather packets the latest 10 day(s).
| Time | Temp. | Humidity | Pressure | Rain* | Wind** | Luminosity | Snow |
|---|---|---|---|---|---|---|---|
| 1777811887 | 22.22° C | 69% | 1009.2 hPa | - | - | - | - |
| 1777810986 | 21.67° C | 71% | 1009.2 hPa | - | - | - | - |
| 1777810086 | 21.67° C | 73% | 1009.1 hPa | - | - | - | - |
| 1777809186 | 21.11° C | 75% | 1009.4 hPa | - | - | - | - |
| 1777808286 | 20.56° C | 77% | 1009.4 hPa | - | - | - | - |
| 1777807386 | 19.44° C | 78% | 1009.6 hPa | - | - | - | - |
| 1777806486 | 18.89° C | 78% | 1009.8 hPa | - | - | - | - |
| 1777805586 | 18.33° C | 79% | 1009.9 hPa | - | - | - | - |
| 1777804686 | 18.33° C | 79% | 1010.1 hPa | - | - | - | - |
| 1777803786 | 17.78° C | 80% | 1010.1 hPa | - | - | - | - |
| 1777802886 | 17.22° C | 80% | 1010.3 hPa | - | - | - | - |
| 1777801985 | 17.22° C | 81% | 1010.6 hPa | - | - | - | - |
| 1777801085 | 16.67° C | 82% | 1010.7 hPa | - | - | - | - |
| 1777800185 | 16.11° C | 83% | 1010.7 hPa | - | - | - | - |
| 1777799285 | 15.56° C | 83% | 1010.7 hPa | - | - | - | - |
| 1777798385 | 15° C | 83% | 1010.8 hPa | - | - | - | - |
| 1777797485 | 14.44° C | 82% | 1010.8 hPa | - | - | - | - |
| 1777796585 | 13.89° C | 81% | 1010.9 hPa | - | - | - | - |
| 1777795685 | 13.33° C | 81% | 1011 hPa | - | - | - | - |
| 1777794784 | 12.78° C | 80% | 1011.1 hPa | - | - | - | - |
| 1777793884 | 12.22° C | 79% | 1011.2 hPa | - | - | - | - |
| 1777792984 | 12.22° C | 79% | 1011.2 hPa | - | - | - | - |
| 1777792084 | 11.67° C | 77% | 1010.9 hPa | - | - | - | - |
| 1777791184 | 11.67° C | 77% | 1011.1 hPa | - | - | - | - |
| 1777790284 | 11.11° C | 76% | 1011.1 hPa | - | - | - | - |
* Rain since midnight (hover to see other rain measurements)
** Current wind speed in m/s (hover to see current wind gust speed)